Weather in Novoilyinovka

Russia / Omsk Oblast     54°14′10″N   71°06′59″E
temp.,
°C
wind,
m/s
gust,
m/s
humid.,
%
clouds,
%
prec.,
mm/h
press.,
hPa
HPBL,
m
21 april, wed
wed2100:000wsw510496 0.0 1027246
03:00+1w7154991 0.0 1025406
06:000wnw6135989 0.0 1025340
09:00+3nnw58655 0.0 1026489
12:00+6nnw68519 0.0 10271366
15:00+8nnw783671 0.0 10281724
18:00+8n78366 0.0 10301868
21:00+4nne47545 0.0 1033193
22 april, thu
thu2200:00+2ene48625 0.0 1036264
03:00−1ene37750 0.0 1038196
06:00−1ene36762 0.0 1040243
09:00+1e44520 0.0 1042709
12:00+4ese34400 0.0 10431147
15:00+7se44330 0.0 10431320
18:00+7se44320 0.0 10431358
21:00+5se46460 0.0 1044121
23 april, fri
fri2300:00+3sse49571 0.0 1044179
03:00+1sse496396 0.0 1043182
06:000sse4867100 0.0 1044148
09:00+4sse585046 0.0 1044409
12:00+8sse56351 0.0 10431276
15:00+11sse66275 0.0 10411670
18:00+11sse5625100 0.0 10391731
21:00+7se4741100 0.0 1040135
24 april, sat
sat2400:00+6sse5124595 0.0 1039306
03:00+3sse41155100 0.0 1037248
06:00+2sse4960100 0.0 1037165
09:00+5sse584696 0.0 1036377
12:00+10sse6730100 0.0 10341264
15:00+12sse5624100 0.0 10321672
18:00+12sse5625100 0.0 10311724
21:00+9se41035100 0.0 1030246
25 april, sun
sun2500:00+8se61241100 0.0 1029370
03:00+7se61246100 0.0 1028315
06:00+6se61250100 0.0 1026286
09:00+9sse7114287 0.0 1025453
12:00+14sse81126100 0.0 10221596
15:00+16s9111964 0.0 10202047
18:00+16s7112179 0.0 10182472
21:00+13s4936100 0.0 1017180